{"data":{"norad_id":58517,"intl_designator":"2023-191K","name":"STARLINK-31011","alt_names":[],"object_type":"PAYLOAD","status":"ACTIVE","operator":null,"country":"US","launch_date":"2023-12-07","launch_site_code":"AFETR","launch_vehicle":null,"mission":null,"orbit_class":"UNKNOWN","rcs_meters":null,"size_class":null,"mass_kg":null,"dimensions":null,"purposes":["comms"],"wikipedia_slug":null,"has_3d_model":false,"image_url":null,"decayed_at":null,"tle_current":{"epoch":"2026-09-19T20:56:29.736096Z","epoch_age_seconds":201031,"freshness":"STALE","line1":"1 58517U 23191K   26262.87256639  .00000129  00000+0  14206-4 0  9994","line2":"2 58517  43.0013  86.4077 0001184 274.9043  85.1674 15.27579148155173","mean_motion":15.27579148,"eccentricity":0.0001184,"inclination_deg":43.0013,"raan_deg":86.4077,"arg_perigee_deg":274.9043,"mean_anomaly_deg":85.1674,"bstar":1.4206e-5,"rev_number":15517,"period_min":94.266801290482,"perigee_km":482.23928249951,"apogee_km":483.86401197118,"semimajor_km":6861.1886472353,"source":"CELESTRAK","updated_at":"2026-09-21T09:00:33.908503Z"}}}